sat.trackr.live / text

‹ back to catalog

STARLINK-37190

NORAD 68396 · 2026-063S

PAYLOAD ACTIVE UNKNOWN

§ Identity

Operator
Country
US
Launch date
2026-03-26
Launch site
AFWTR
Launch vehicle
Mass (kg)
RCS (m²)

Purposes: comms

External: N2YO · Heavens-Above · Gunter

§ Orbital elements

Epoch: 2026-05-25T03:13:44.129856Z

Period
93.91 min
Inclination
97.2870°
Eccentricity
0.0001291
Mean motion
15.33453307 rev/d
Perigee alt
464.6 km
Apogee alt
466.4 km
Semi-major
6,843.7 km
B*
7.7316e-4
RAAN
287.7452°
Arg perigee
83.8528°
Mean anomaly
276.2862°
Rev number
961

§ Raw data

STARLINK-371901 68396U 26063S   26145.13453854  .00024975  00000+0  77316-3 0  99932 68396  97.2870 287.7452 0001291  83.8528 276.2862 15.33453307  9612

JSON: /api/v1/satellites/68396 · /tle

For live sub-satellite position, see the globe view (requires WebGL).

§ Visibility from observer

Set your observer location to see the next 7 days of passes ≥ 10°. The values pass through the URL so the page stays shareable.

No JS? Fill the form by hand. The geolocation button needs JavaScript.